User: anonymous   Login
Location: McDonald Observatory
(30.6717°N, 104.0221°W)
Time: 07:28:54
(UTC-05:00)
Language:

Cosmos 1484 Rocket - Orbit

View from above orbital plane
View from above orbital plane
View from above satellite
View from above satellite

Ground track
Ground track

The orbit data is extracted from the following two-line orbital elements,

1 14208U 83075B   15216.63726299  .00001200  00000-0  78285-4 0  9994
2 14208 097.3820 243.3556 0039661 325.6066 034.2597 15.09116912744513
Epoch (UTC): 04 August 2015 15:17:39
Eccentricity: 0.0039661
inclination: 97.3820°
perigee height: 511 km
apogee height: 566 km
right ascension of ascending node: 243.3556°
argument of perigee: 325.6066°
revolutions per day: 15.09116912
mean anomaly at epoch: 34.2597°
orbit number at epoch: 74451

The dashed part of the orbit path shows where the satellite is in the earth's shadow,  

DLR